OpenBCM V1.07b12 (Linux)

Packet Radio Mailbox

DB0FHN

[JN59NK Nuernberg]

 Login: GUEST





  
F1EBE  > KEPLER   19.02.03 20:15l 105 Lines 5482 Bytes #999 (0) @ EU
BID : 22315_F8KOH
Read: DB0FHN GUEST
Subj: 2L Satell Amat 049.day
Path: DB0FHN<DB0RGB<OK0PPL<RZ6HXA<LX0PAC<F6KIF<F1HCI<F6KDS<F5KCK<F8KAE<
      F8KOH
Sent: 030219/0937Z @:F8KOH.FNOR.FRA.EU #:22315 [Vernon] FBB7.00i $:22315_F8KOH
From: F1EBE@F8KOH.FNOR.FRA.EU
To  : KEPLER@EU


AO-7                    
1 07530U 74089B   03048.65420660 -.00000029  00000-0  10000-3 0  1917
2 07530 101.7613  96.4494 0012265  79.7065 280.5386 12.53564380293072
AO-10                   
1 14129U 83058B   03041.63642645  .00000117  00000-0  10000-3 0  9167
2 14129  25.9157 165.6251 6028355 326.7167   6.8087  2.05866882119909
UO-11                   
1 14781U 84021B   03049.20507192  .00001935  00000-0  27548-3 0   738
2 14781  98.1177  23.1240 0008516 206.8509 153.2262 14.78001468 16184
UO-14                   
1 20437U 90005B   03048.93945172  .00000176  00000-0  82146-4 0  1705
2 20437  98.2733  92.5834 0010091 200.7981 159.2794 14.31238262682408
AO-16                   
1 20439U 90005D   03048.67486655  .00000199  00000-0  90690-4 0  8574
2 20439  98.3178 104.0102 0010363 208.0308 152.0331 14.31472106682402
DO-17                   
1 20440U 90005E   03048.73384214  .00000221  00000-0  98539-4 0  7442
2 20440  98.3377 107.9578 0010224 208.0126 152.0502 14.31750097682484
WO-18                   
1 20441U 90005F   03048.93529278  .00000185  00000-0  85178-4 0   162
2 20441  98.3332 107.3616 0011107 206.8007 153.2604 14.31553820682490
LO-19                   
1 20442U 90005G   03048.70412753  .00000219  00000-0  97732-4 0  9680
2 20442  98.3480 110.1631 0011231 207.9087 152.1493 14.31717063682510
FO-20                   
1 20480U 90013C   03048.92213070  .00000018  00000-0  11298-3 0  4646
2 20480  99.0469  11.7859 0540679   5.3425 355.3138 12.83330386610433
RS-12/13                
1 21089U 91007A   03048.88547271  .00000088  00000-0  76971-4 0  4911
2 21089  82.9227 181.8841 0027939 290.2481  69.5671 13.74404501603696
UO-22                   
1 21575U 91050B   03048.95160384  .00000440  00000-0  15522-3 0  7338
2 21575  98.1409  41.1044 0008202 130.0889 230.1021 14.39155707608193
KO-23                   
1 22077U 92052B   03048.94568598 -.00000037  00000-0  10000-3 0  1699
2 22077  66.0875 127.0350 0015547 273.9006  86.0235 12.86408426494225
AO-27                   
1 22825U 93061C   03048.98229669  .00000176  00000-0  85941-4 0  5085
2 22825  98.2748  78.7087 0007455 260.6076  99.4271 14.28943402489790
IO-26                   
1 22826U 93061D   03048.66260870  .00000200  00000-0  95095-4 0  3133
2 22826  98.2760  79.5210 0008094 264.2926  95.7325 14.29166239489791
KO-25                   
1 22828U 93061F   03048.64314841  .00000164  00000-0  80342-4 0  4297
2 22828  98.2713  79.7657 0009086 239.4261 120.6026 14.29508184457998
POSAT                   
1 22829U 93061G   03048.65250865  .00000275  00000-0  12309-3 0  4575
2 22829  98.2726  80.3801 0008945 239.4166 120.6134 14.29768570489924
RS-15                   
1 23439U 94085A   03044.94768411 -.00000042  00000-0  12993-4 0  6888
2 23439  64.8154  48.9543 0146897 116.1058 245.5064 11.27547626335076
FO-29                   
1 24278U 96046B   03048.94988426  .00000038  00000-0  75674-4 0  5780
2 24278  98.5349 200.2529 0350129 218.0165 139.5785 13.52872793321221
TO-31                   
1 25396U 98043C   03048.97351739 -.00000043  00000-0  00000-0 0  9097
2 25396  98.6271 126.0910 0003819 126.4393 233.7140 14.23510814239449
GO-32                   
1 25397U 98043D   03048.92478466  .00000089  00000-0  58809-4 0  1354
2 25397  98.6224 124.9265 0002054 130.8189 229.3167 14.22959937239408
SO-33                   
1 25509U 98061B   03048.67188186  .00001047  00000-0  19663-3 0  7847
2 25509  31.4302 158.2326 0358392 294.9953  61.3857 14.27435426225180
PO-34                   
1 25520U 98064B   03048.50452992  .00003470  00000-0  17651-3 0  6480
2 25520  28.4592 230.9488 0005448 337.8460  22.1899 15.13886867237424
ISS        
1 25544U 98067A   03049.52274850  .00020195  00000-0  26435-3 0  7032
2 25544  51.6338 256.2201 0012155 216.7032 243.6695 15.58511986242496
UO-36                   
1 25693U 99021A   03049.14372138  .00000733  00000-0  12467-3 0  7131
2 25693  64.5599  12.0862 0020354 316.5064  43.4409 14.76391361206196
OO-38                   
1 26063U 00004C   03048.71883833  .00000187  00000-0  85055-4 0  7235
2 26063 100.2132 103.1453 0036888 289.7073  70.0128 14.35481463160266
SO-41                   
1 26545U 00057A   03048.80198816  .00001614  00000-0  23240-3 0  4137
2 26545  64.5593  34.2792 0052222 238.8375 120.7602 14.78985194129109
MO-46                   
1 26548U 00057D   03048.42061988  .00002185  00000-0  29311-3 0  4170
2 26548  64.5570  28.3530 0045517 238.2327 121.4332 14.81274051129207
SO-42                   
1 26549U 00057E   03048.97284986  .00001533  00000-0  22642-3 0  6950
2 26549  64.5509  37.8635 0056671 238.9296 120.6243 14.77922417129052
AO-40                   
1 26609U 00072B   03046.24037137 -.00000118  00000-0  10000-3 0  3115
2 26609   8.0800  64.6767 7942000 144.0329 312.8612  1.25596569 10543
NO-44                   
1 26931U 01043C   03048.96533211  .00000192  00000-0  10809-3 0  4093
2 26931  67.0474 257.1683 0005009 266.0413  94.0114 14.29115377 72265
NO-45                   
1 26932U 01043D   03048.94345363  .00000110  00000-0  75433-4 0  4445
2 26932  67.0545 256.9298 0004904 241.8098 118.2506 14.29294227 72285
AO-49                   
1 27605U 02058A   03048.90037367  .00001640  00000-0  28325-3 0   754
2 27605  64.5510 199.2644 0035451 113.4971 246.9866 14.71374546  8711
SO-50                   
1 27607U 02058C   03048.89419262  .00001618  00000-0  28871-3 0   551
2 27607  64.5500 199.7202 0037440 110.5347 249.9777 14.69906002  8700



Read previous mail | Read next mail


 18.09.2025 07:02:01lGo back Go up